Location: Conflandey
(47.7287°N, 6.0456°E)
Time: 02:35:54
(UTC+00:00)

Cosmos 1459 Rocket - Pass Details

Date: 24 October 2021
Orbit: 936 x 1000 km, 83.0° (Epoch: 28 November)

Event Time Altitude Azimuth Distance (km) Brightness Sun altitude
Rises 18:16:03 0° 160° (SSE) 3,659 6.8 -18.3°
Reaches altitude 10° 18:18:44 10° 153° (SSE) 2,706 6.0 -18.7°
Maximum altitude 18:24:19 37° 88° (E) 1,446 4.4 -19.7°
Drops below altitude 10° 18:29:52 10° 23° (NNE) 2,685 6.1 -20.6°
Sets 18:32:31 0° 16° (NNE) 3,627 6.9 -21.0°
